Find OTC-P1-8

NORAD ID: 63358 Int'l Des: 2025-061 Owner: ORORA Country: D operational
LEOCIRCULARRETROGRADESSO

Live Position

Loading 3D Globe...

About OTC-P1-8

Description loading...

Upcoming Passes

Passes for default location (London). Set your location on the main map for personalized predictions.

Altitude History

Loading altitude history...

Two-Line Element Set

1 63358U 25061H 26105.89117220 .00003043 00000-0 17152-3 0 9992
2 63358 97.5577 82.0371 0018687 110.7637 249.5599 15.13817674 58192
Epoch: Apr 15, 2026 • Age: 21 hours

Current Status

Altitude 523.1 km
Velocity 7.60 km/s
Sub-Earth Point 1.64°N, 136.3°E
Launch Date Mar 26, 2025
Age 1 years
Type other

Technical Details

Classification Payload
Mass 15.00 kg
Dry Mass 15.00 kg
Total Mass 15.00 kg
Length 0.30 m
Diameter 0.20 m
Span 0.40 m
Shape Box+2 pan
Manufacturer SPIREG
Bus Type Cubesat 6U
Phase Status In Orbit
Owner/State ORORA/D

Most Searched